Tracking 26940 objects as of 28-Jan-2023
HD Live streaming from Space Station
objects crossing your sky now

ORBCOMM FM 111

Track ORBCOMM FM 111 now!
10-day predictions
ORBCOMM FM 111 is classified as:


NORAD ID: 40089
Int'l Code: 2014-040D
Perigee: 616.4 km
Apogee: 665.3 km
Inclination: 47.0 °
Period: 97.4 minutes
Semi major axis: 7011 km
RCS: Unknown
Launch date: July 14, 2014
Source: United States (US)
Launch site: AIR FORCE EASTERN TEST RANGE (AFETR)
Your satellite tracking list
Your tracking list is empty




NASA's NSSDC Master Catalog

Two Line Element Set (TLE):
1 40089U 14040D   23028.22782459  .00002905  00000-0  41639-3 0  9996
2 40089  47.0066   0.9122 0034907   6.8344 353.3020 14.78608200461045
Source of the keplerian elements: AFSPC